Private Wetterstation Sandau
Wetterdaten: Dienstag, 01.01.2013
Datum Zeit Temp. A. Feuchte A. Luftdruck Regen Wind Richtung Richtung Taupunkt Windchill
01.01.2013 00:01 6,2 C 81 % 1006,0 hPa 0,0 l/m 13,7 km/h (3 Bft) S-SW 202 3,2 C 3,4 C
01.01.2013 00:06 6,2 C 81 % 1005,7 hPa 0,0 l/m 15,8 km/h (3 Bft) S-SW 202 3,2 C 3,1 C
01.01.2013 00:11 6,2 C 81 % 1005,7 hPa 0,0 l/m 8,3 km/h (2 Bft) S-SW 202 3,2 C 4,5 C
01.01.2013 00:16 6,2 C 81 % 1005,7 hPa 0,0 l/m 14,0 km/h (3 Bft) W-SW 247 3,2 C 3,4 C
01.01.2013 00:21 6,3 C 81 % 1005,7 hPa 0,0 l/m 15,8 km/h (3 Bft) S 180 3,3 C 3,2 C
01.01.2013 00:26 6,3 C 81 % 1005,7 hPa 0,0 l/m 20,9 km/h (4 Bft) SW 225 3,3 C 2,6 C
01.01.2013 00:31 6,4 C 81 % 1005,5 hPa 0,0 l/m 19,4 km/h (3 Bft) W-SW 247 3,4 C 2,9 C
01.01.2013 00:36 6,4 C 81 % 1005,3 hPa 0,0 l/m 11,9 km/h (2 Bft) SO 135 3,4 C 4,0 C
01.01.2013 00:41 6,4 C 81 % 1005,3 hPa 0,0 l/m 9,4 km/h (2 Bft) S-SW 202 3,4 C 4,5 C
01.01.2013 00:46 6,4 C 81 % 1005,1 hPa 0,0 l/m 12,2 km/h (2 Bft) S-SW 202 3,4 C 3,9 C
01.01.2013 00:51 6,4 C 81 % 1005,1 hPa 0,0 l/m 6,1 km/h (2 Bft) SW 225 3,4 C 5,3 C
01.01.2013 00:56 6,4 C 81 % 1005,2 hPa 0,0 l/m 9,7 km/h (2 Bft) S 180 3,4 C 4,4 C
01.01.2013 01:01 6,4 C 82 % 1005,0 hPa 0,0 l/m 11,9 km/h (2 Bft) SW 225 3,6 C 4,0 C
01.01.2013 01:06 6,4 C 82 % 1005,0 hPa 0,0 l/m 10,1 km/h (2 Bft) SW 225 3,6 C 4,3 C
01.01.2013 01:11 6,5 C 81 % 1004,6 hPa 0,0 l/m 7,9 km/h (2 Bft) SW 225 3,5 C 4,9 C
01.01.2013 01:16 6,5 C 81 % 1004,6 hPa 0,0 l/m 13,0 km/h (3 Bft) S-SW 202 3,5 C 3,9 C
01.01.2013 01:21 6,5 C 81 % 1004,8 hPa 0,0 l/m 22,0 km/h (4 Bft) W-SW 247 3,5 C 2,7 C
01.01.2013 01:26 6,5 C 81 % 1004,4 hPa 0,0 l/m 9,0 km/h (2 Bft) S-SW 202 3,5 C 4,7 C
01.01.2013 01:31 6,5 C 81 % 1004,5 hPa 0,0 l/m 14,4 km/h (3 Bft) S-SO 157 3,5 C 3,7 C
01.01.2013 01:36 6,5 C 81 % 1004,5 hPa 0,0 l/m 10,1 km/h (2 Bft) SW 225 3,5 C 4,4 C
01.01.2013 01:41 6,6 C 81 % 1004,2 hPa 0,0 l/m 9,7 km/h (2 Bft) S-SW 202 3,6 C 4,6 C
01.01.2013 01:46 6,7 C 81 % 1004,3 hPa 0,0 l/m 16,9 km/h (3 Bft) W-SW 247 3,7 C 3,6 C
01.01.2013 01:51 6,8 C 81 % 1004,2 hPa 0,0 l/m 9,4 km/h (2 Bft) S-SW 202 3,8 C 4,9 C
01.01.2013 01:56 6,9 C 80 % 1004,2 hPa 0,0 l/m 13,7 km/h (3 Bft) S 180 3,7 C 4,3 C
01.01.2013 02:01 7,0 C 80 % 1004,3 hPa 0,0 l/m 24,1 km/h (4 Bft) W-SW 247 3,8 C 3,2 C
01.01.2013 02:06 7,1 C 79 % 1004,1 hPa 0,0 l/m 18,0 km/h (3 Bft) S 180 3,7 C 3,9 C
01.01.2013 02:11 7,2 C 79 % 1004,1 hPa 0,0 l/m 17,3 km/h (3 Bft) SW 225 3,8 C 4,2 C
01.01.2013 02:16 7,2 C 79 % 1004,1 hPa 0,0 l/m 14,8 km/h (3 Bft) SO 135 3,8 C 4,5 C
01.01.2013 02:21 7,2 C 78 % 1004,0 hPa 0,0 l/m 13,7 km/h (3 Bft) S 180 3,6 C 4,7 C
01.01.2013 02:26 7,2 C 78 % 1003,9 hPa 0,0 l/m 9,4 km/h (2 Bft) S-SW 202 3,6 C 5,4 C
01.01.2013 02:31 7,3 C 78 % 1003,8 hPa 0,0 l/m 19,4 km/h (3 Bft) S-SW 202 3,7 C 4,0 C
01.01.2013 02:36 7,3 C 78 % 1003,8 hPa 0,0 l/m 13,7 km/h (3 Bft) W-SW 247 3,7 C 4,8 C
01.01.2013 02:41 7,3 C 77 % 1004,0 hPa 0,0 l/m 13,3 km/h (3 Bft) SW 225 3,5 C 4,8 C
01.01.2013 02:46 7,3 C 77 % 1004,0 hPa 0,0 l/m 16,9 km/h (3 Bft) W-SW 247 3,5 C 4,3 C
01.01.2013 02:51 7,3 C 77 % 1003,8 hPa 0,0 l/m 21,2 km/h (4 Bft) SW 225 3,5 C 3,8 C
01.01.2013 02:56 7,4 C 77 % 1003,8 hPa 0,0 l/m 14,8 km/h (3 Bft) S 180 3,6 C 4,7 C
01.01.2013 03:01 7,4 C 77 % 1003,8 hPa 0,0 l/m 20,2 km/h (4 Bft) SW 225 3,6 C 4,1 C
01.01.2013 03:06 7,4 C 77 % 1003,8 hPa 0,0 l/m 16,9 km/h (3 Bft) SW 225 3,6 C 4,5 C
01.01.2013 03:11 7,4 C 77 % 1003,6 hPa 0,0 l/m 18,4 km/h (3 Bft) S-SW 202 3,6 C 4,3 C
01.01.2013 03:16 7,4 C 77 % 1003,6 hPa 0,0 l/m 18,0 km/h (3 Bft) S-SW 202 3,6 C 4,3 C
01.01.2013 03:21 7,4 C 77 % 1003,5 hPa 0,0 l/m 13,3 km/h (3 Bft) S 180 3,6 C 5,0 C
01.01.2013 03:26 7,4 C 77 % 1003,4 hPa 0,0 l/m 23,8 km/h (4 Bft) S 180 3,6 C 3,7 C
01.01.2013 03:31 7,4 C 77 % 1003,5 hPa 0,0 l/m 16,6 km/h (3 Bft) SW 225 3,6 C 4,5 C
01.01.2013 03:36 7,4 C 77 % 1003,4 hPa 0,0 l/m 16,9 km/h (3 Bft) W-SW 247 3,6 C 4,5 C
01.01.2013 03:41 7,4 C 77 % 1003,3 hPa 0,0 l/m 13,0 km/h (3 Bft) W-SW 247 3,6 C 5,0 C
01.01.2013 03:46 7,4 C 77 % 1003,2 hPa 0,0 l/m 11,2 km/h (2 Bft) S 180 3,6 C 5,3 C
01.01.2013 03:51 7,4 C 77 % 1003,2 hPa 0,0 l/m 20,5 km/h (4 Bft) S-SW 202 3,6 C 4,0 C
01.01.2013 03:56 7,4 C 76 % 1003,2 hPa 0,0 l/m 10,4 km/h (2 Bft) W 270 3,5 C 5,4 C
01.01.2013 04:01 7,4 C 76 % 1003,1 hPa 0,0 l/m 16,6 km/h (3 Bft) SW 225 3,5 C 4,5 C
01.01.2013 04:06 7,4 C 77 % 1003,3 hPa 0,0 l/m 23,0 km/h (4 Bft) SW 225 3,6 C 3,8 C
01.01.2013 04:11 7,4 C 77 % 1003,1 hPa 0,0 l/m 23,0 km/h (4 Bft) SW 225 3,6 C 3,8 C
01.01.2013 04:16 7,4 C 77 % 1002,9 hPa 0,0 l/m 16,9 km/h (3 Bft) SW 225 3,6 C 4,5 C
01.01.2013 04:21 7,4 C 77 % 1002,9 hPa 0,0 l/m 7,9 km/h (2 Bft) SW 225 3,6 C 6,0 C
01.01.2013 04:26 7,4 C 77 % 1003,0 hPa 0,0 l/m 14,0 km/h (3 Bft) SW 225 3,6 C 4,9 C
01.01.2013 04:31 7,4 C 77 % 1002,9 hPa 0,0 l/m 14,8 km/h (3 Bft) S-SO 157 3,6 C 4,7 C
01.01.2013 04:36 7,4 C 77 % 1002,8 hPa 0,0 l/m 12,2 km/h (2 Bft) S-SO 157 3,6 C 5,1 C
01.01.2013 04:41 7,4 C 77 % 1002,6 hPa 0,0 l/m 14,0 km/h (3 Bft) S-SW 202 3,6 C 4,9 C
01.01.2013 04:46 7,4 C 77 % 1002,4 hPa 0,0 l/m 8,3 km/h (2 Bft) SW 225 3,6 C 5,9 C
01.01.2013 04:51 7,4 C 77 % 1002,4 hPa 0,0 l/m 13,7 km/h (3 Bft) W-SW 247 3,6 C 4,9 C
01.01.2013 04:56 7,4 C 77 % 1002,7 hPa 0,0 l/m 13,0 km/h (3 Bft) W-SW 247 3,6 C 5,0 C
01.01.2013 05:01 7,4 C 77 % 1002,4 hPa 0,0 l/m 16,9 km/h (3 Bft) W 270 3,6 C 4,5 C
01.01.2013 05:06 7,4 C 77 % 1002,4 hPa 0,0 l/m 20,9 km/h (4 Bft) W 270 3,6 C 4,0 C
01.01.2013 05:11 7,5 C 77 % 1002,5 hPa 0,0 l/m 13,0 km/h (3 Bft) W-SW 247 3,7 C 5,1 C
01.01.2013 05:16 7,4 C 77 % 1002,5 hPa 0,0 l/m 8,6 km/h (2 Bft) S-SW 202 3,6 C 5,8 C
01.01.2013 05:21 7,4 C 77 % 1002,4 hPa 0,0 l/m 9,4 km/h (2 Bft) S 180 3,6 C 5,6 C
01.01.2013 05:26 7,4 C 77 % 1002,5 hPa 0,0 l/m 5,4 km/h (1 Bft) S 180 3,6 C 6,7 C
01.01.2013 05:31 7,3 C 77 % 1002,4 hPa 0,0 l/m 13,3 km/h (3 Bft) SW 225 3,5 C 4,8 C
01.01.2013 05:36 7,3 C 77 % 1002,3 hPa 0,0 l/m 12,2 km/h (2 Bft) W-SW 247 3,5 C 5,0 C
01.01.2013 05:41 7,3 C 78 % 1002,3 hPa 0,0 l/m 10,4 km/h (2 Bft) S 180 3,7 C 5,3 C
01.01.2013 05:46 7,2 C 78 % 1002,3 hPa 0,0 l/m 16,2 km/h (3 Bft) W 270 3,6 C 4,3 C
01.01.2013 05:51 7,2 C 78 % 1002,4 hPa 0,0 l/m 17,6 km/h (3 Bft) S-SW 202 3,6 C 4,1 C
01.01.2013 05:56 7,2 C 78 % 1002,3 hPa 0,0 l/m 14,8 km/h (3 Bft) SW 225 3,6 C 4,5 C
01.01.2013 06:01 7,2 C 78 % 1002,2 hPa 0,0 l/m 14,8 km/h (3 Bft) SW 225 3,6 C 4,5 C
01.01.2013 06:06 7,2 C 78 % 1002,3 hPa 0,0 l/m 8,6 km/h (2 Bft) SW 225 3,6 C 5,6 C
01.01.2013 06:11 7,2 C 78 % 1002,2 hPa 0,0 l/m 13,3 km/h (3 Bft) SW 225 3,6 C 4,7 C
01.01.2013 06:16 7,2 C 78 % 1002,0 hPa 0,0 l/m 16,9 km/h (3 Bft) W-SW 247 3,6 C 4,2 C
01.01.2013 06:21 7,2 C 78 % 1002,0 hPa 0,0 l/m 10,4 km/h (2 Bft) S-SW 202 3,6 C 5,2 C
01.01.2013 06:26 7,2 C 78 % 1002,1 hPa 0,0 l/m 14,8 km/h (3 Bft) S-SW 202 3,6 C 4,5 C
01.01.2013 06:31 7,2 C 78 % 1002,2 hPa 0,0 l/m 16,9 km/h (3 Bft) S-SW 202 3,6 C 4,2 C
01.01.2013 06:36 7,2 C 78 % 1002,0 hPa 0,0 l/m 14,4 km/h (3 Bft) W 270 3,6 C 4,5 C
01.01.2013 06:41 7,2 C 78 % 1002,0 hPa 0,0 l/m 14,0 km/h (3 Bft) SW 225 3,6 C 4,6 C
01.01.2013 06:46 7,2 C 78 % 1002,0 hPa 0,0 l/m 10,1 km/h (2 Bft) W-SW 247 3,6 C 5,3 C
01.01.2013 06:51 7,3 C 78 % 1002,0 hPa 0,0 l/m 8,3 km/h (2 Bft) W 270 3,7 C 5,8 C
01.01.2013 06:56 7,3 C 78 % 1001,9 hPa 0,0 l/m 10,1 km/h (2 Bft) S-SW 202 3,7 C 5,4 C
01.01.2013 07:01 7,3 C 77 % 1001,9 hPa 0,0 l/m 13,3 km/h (3 Bft) S 180 3,5 C 4,8 C
01.01.2013 07:06 7,3 C 78 % 1002,0 hPa 0,0 l/m 11,5 km/h (2 Bft) W-SW 247 3,7 C 5,1 C
01.01.2013 07:11 7,3 C 78 % 1001,9 hPa 0,0 l/m 20,5 km/h (4 Bft) W-SW 247 3,7 C 3,9 C
01.01.2013 07:16 7,3 C 78 % 1001,9 hPa 0,0 l/m 8,6 km/h (2 Bft) SW 225 3,7 C 5,7 C
01.01.2013 07:21 7,2 C 78 % 1002,1 hPa 0,0 l/m 10,4 km/h (2 Bft) SW 225 3,6 C 5,2 C
01.01.2013 07:26 7,2 C 79 % 1001,9 hPa 0,0 l/m 12,2 km/h (2 Bft) S-SW 202 3,8 C 4,9 C
01.01.2013 07:31 7,2 C 79 % 1002,0 hPa 0,0 l/m 4,0 km/h (1 Bft) S-SW 202 3,8 C 7,2 C
01.01.2013 07:36 7,2 C 79 % 1002,0 hPa 0,0 l/m 16,9 km/h (3 Bft) SW 225 3,8 C 4,2 C
01.01.2013 07:41 7,1 C 79 % 1002,1 hPa 0,0 l/m 7,9 km/h (2 Bft) W-SW 247 3,7 C 5,6 C
01.01.2013 07:46 7,1 C 79 % 1002,0 hPa 0,0 l/m 13,3 km/h (3 Bft) SW 225 3,7 C 4,6 C
01.01.2013 07:51 7,0 C 80 % 1002,0 hPa 0,0 l/m 16,6 km/h (3 Bft) W-SW 247 3,8 C 4,0 C
01.01.2013 07:56 6,9 C 80 % 1002,1 hPa 0,0 l/m 5,8 km/h (2 Bft) W-SW 247 3,7 C 6,0 C
01.01.2013 08:01 6,9 C 80 % 1002,1 hPa 0,0 l/m 13,0 km/h (3 Bft) S-SW 202 3,7 C 4,4 C
01.01.2013 08:06 6,9 C 80 % 1002,1 hPa 0,0 l/m 11,9 km/h (2 Bft) S-SW 202 3,7 C 4,6 C
01.01.2013 08:11 6,9 C 81 % 1002,0 hPa 0,0 l/m 18,0 km/h (3 Bft) SW 225 3,9 C 3,7 C
01.01.2013 08:16 6,9 C 81 % 1002,1 hPa 0,0 l/m 7,9 km/h (2 Bft) S-SW 202 3,9 C 5,4 C
01.01.2013 08:21 6,9 C 81 % 1002,1 hPa 0,0 l/m 12,6 km/h (3 Bft) SW 225 3,9 C 4,5 C
01.01.2013 08:26 6,9 C 81 % 1002,1 hPa 0,0 l/m 15,5 km/h (3 Bft) S-SW 202 3,9 C 4,0 C
01.01.2013 08:31 6,9 C 81 % 1002,2 hPa 0,0 l/m 8,6 km/h (2 Bft) S-SW 202 3,9 C 5,2 C
01.01.2013 08:36 6,9 C 81 % 1002,1 hPa 0,0 l/m 9,4 km/h (2 Bft) S-SW 202 3,9 C 5,1 C
01.01.2013 08:41 6,9 C 81 % 1002,1 hPa 0,0 l/m 18,0 km/h (3 Bft) S-SW 202 3,9 C 3,7 C
01.01.2013 08:46 6,9 C 81 % 1002,1 hPa 0,0 l/m 13,0 km/h (3 Bft) S-SW 202 3,9 C 4,4 C
01.01.2013 08:51 6,9 C 81 % 1002,1 hPa 0,0 l/m 6,8 km/h (2 Bft) W-SW 247 3,9 C 5,7 C
01.01.2013 08:56 6,9 C 82 % 1002,2 hPa 0,0 l/m 5,8 km/h (2 Bft) W-SW 247 4,0 C 6,0 C
01.01.2013 09:01 7,0 C 82 % 1002,2 hPa 0,0 l/m 7,6 km/h (2 Bft) S-SO 157 4,1 C 5,6 C
01.01.2013 09:06 6,9 C 82 % 1002,1 hPa 0,0 l/m 13,0 km/h (3 Bft) S-SO 157 4,0 C 4,4 C
01.01.2013 09:11 6,9 C 82 % 1002,4 hPa 0,0 l/m 6,5 km/h (2 Bft) S 180 4,0 C 5,8 C
01.01.2013 09:16 7,0 C 82 % 1002,3 hPa 0,0 l/m 10,1 km/h (2 Bft) SW 225 4,1 C 5,0 C
01.01.2013 09:21 7,0 C 82 % 1002,3 hPa 0,0 l/m 10,8 km/h (2 Bft) SW 225 4,1 C 4,9 C
01.01.2013 09:26 7,0 C 82 % 1002,2 hPa 0,0 l/m 5,0 km/h (1 Bft) S 180 4,1 C 6,4 C
01.01.2013 09:31 6,9 C 82 % 1002,3 hPa 0,0 l/m 7,2 km/h (2 Bft) SW 225 4,0 C 5,6 C
01.01.2013 09:36 6,9 C 82 % 1002,3 hPa 0,0 l/m 10,8 km/h (2 Bft) W-SW 247 4,0 C 4,8 C
01.01.2013 09:41 6,9 C 82 % 1002,2 hPa 0,0 l/m 19,8 km/h (3 Bft) SW 225 4,0 C 3,5 C
01.01.2013 09:46 6,9 C 82 % 1002,3 hPa 0,0 l/m 9,4 km/h (2 Bft) SW 225 4,0 C 5,1 C
01.01.2013 09:51 6,9 C 81 % 1002,3 hPa 0,0 l/m 16,6 km/h (3 Bft) W-SW 247 3,9 C 3,9 C
01.01.2013 09:56 6,9 C 81 % 1002,3 hPa 0,0 l/m 6,1 km/h (2 Bft) S-SO 157 3,9 C 5,9 C
01.01.2013 10:01 6,9 C 81 % 1002,3 hPa 0,0 l/m 15,5 km/h (3 Bft) SW 225 3,9 C 4,0 C
01.01.2013 10:06 6,9 C 81 % 1002,2 hPa 0,0 l/m 10,8 km/h (2 Bft) S-SW 202 3,9 C 4,8 C
01.01.2013 10:11 7,0 C 81 % 1002,5 hPa 0,0 l/m 23,0 km/h (4 Bft) S-SW 202 4,0 C 3,3 C
01.01.2013 10:16 7,0 C 81 % 1002,6 hPa 0,0 l/m 15,8 km/h (3 Bft) SW 225 4,0 C 4,1 C
01.01.2013 10:21 7,0 C 81 % 1002,6 hPa 0,0 l/m 15,1 km/h (3 Bft) S 180 4,0 C 4,2 C
01.01.2013 10:26 7,0 C 80 % 1002,6 hPa 0,0 l/m 10,1 km/h (2 Bft) SW 225 3,8 C 5,0 C
01.01.2013 10:31 7,1 C 80 % 1002,5 hPa 0,0 l/m 11,2 km/h (2 Bft) W-SW 247 3,9 C 4,9 C
01.01.2013 10:36 7,1 C 80 % 1002,6 hPa 0,0 l/m 16,9 km/h (3 Bft) S-SO 157 3,9 C 4,1 C
01.01.2013 10:41 7,1 C 79 % 1002,6 hPa 0,0 l/m 11,2 km/h (2 Bft) SW 225 3,7 C 4,9 C
01.01.2013 10:46 7,2 C 79 % 1002,6 hPa 0,0 l/m 21,6 km/h (4 Bft) SW 225 3,8 C 3,7 C
01.01.2013 10:51 7,2 C 79 % 1002,4 hPa 0,0 l/m 14,0 km/h (3 Bft) S-SW 202 3,8 C 4,6 C
01.01.2013 10:56 7,2 C 79 % 1002,4 hPa 0,0 l/m 8,3 km/h (2 Bft) SW 225 3,8 C 5,6 C
01.01.2013 11:01 7,3 C 79 % 1002,5 hPa 0,0 l/m 7,6 km/h (2 Bft) SW 225 3,9 C 5,9 C
01.01.2013 11:06 7,3 C 78 % 1002,4 hPa 0,0 l/m 18,0 km/h (3 Bft) W-SW 247 3,7 C 4,2 C
01.01.2013 11:11 7,4 C 78 % 1002,3 hPa 0,0 l/m 10,8 km/h (2 Bft) W-SW 247 3,8 C 5,4 C
01.01.2013 11:16 7,4 C 78 % 1002,3 hPa 0,0 l/m 10,8 km/h (2 Bft) S-SW 202 3,8 C 5,4 C
01.01.2013 11:21 7,5 C 78 % 1002,3 hPa 0,0 l/m 15,8 km/h (3 Bft) S-SW 202 3,9 C 4,7 C
01.01.2013 11:26 7,5 C 78 % 1002,3 hPa 0,0 l/m 20,9 km/h (4 Bft) SW 225 3,9 C 4,1 C
01.01.2013 11:31 7,6 C 78 % 1002,4 hPa 0,0 l/m 6,1 km/h (2 Bft) SW 225 4,0 C 6,7 C
01.01.2013 11:36 7,6 C 78 % 1002,3 hPa 0,0 l/m 15,8 km/h (3 Bft) W-SW 247 4,0 C 4,8 C
01.01.2013 11:41 7,7 C 77 % 1002,3 hPa 0,0 l/m 15,5 km/h (3 Bft) W-SW 247 3,9 C 5,0 C
01.01.2013 11:46 7,8 C 77 % 1002,3 hPa 0,0 l/m 14,8 km/h (3 Bft) SW 225 4,0 C 5,2 C
01.01.2013 11:51 7,8 C 77 % 1002,4 hPa 0,0 l/m 23,4 km/h (4 Bft) W 270 4,0 C 4,3 C
01.01.2013 11:56 7,8 C 77 % 1002,4 hPa 0,0 l/m 19,8 km/h (3 Bft) S-SW 202 4,0 C 4,6 C
01.01.2013 12:01 7,8 C 77 % 1002,3 hPa 0,0 l/m 16,9 km/h (3 Bft) W-SW 247 4,0 C 5,0 C
01.01.2013 12:06 7,9 C 77 % 1002,3 hPa 0,0 l/m 18,0 km/h (3 Bft) W-SW 247 4,1 C 4,9 C
01.01.2013 12:11 7,9 C 77 % 1002,4 hPa 0,0 l/m 16,9 km/h (3 Bft) S-SW 202 4,1 C 5,1 C
01.01.2013 12:16 7,9 C 77 % 1002,4 hPa 0,0 l/m 22,7 km/h (4 Bft) W-SW 247 4,1 C 4,5 C
01.01.2013 12:21 7,9 C 77 % 1002,5 hPa 0,0 l/m 15,8 km/h (3 Bft) SW 225 4,1 C 5,2 C
01.01.2013 12:26 7,9 C 77 % 1002,4 hPa 0,0 l/m 13,3 km/h (3 Bft) SW 225 4,1 C 5,6 C
01.01.2013 12:31 7,9 C 77 % 1002,4 hPa 0,0 l/m 24,1 km/h (4 Bft) W-SW 247 4,1 C 4,3 C
01.01.2013 12:36 7,9 C 77 % 1002,3 hPa 0,0 l/m 17,3 km/h (3 Bft) W-SW 247 4,1 C 5,0 C
01.01.2013 12:41 7,9 C 78 % 1002,3 hPa 0,0 l/m 27,4 km/h (4 Bft) S-SW 202 4,3 C 4,0 C
01.01.2013 12:46 7,9 C 78 % 1002,3 hPa 0,0 l/m 16,9 km/h (3 Bft) W-SW 247 4,3 C 5,1 C
01.01.2013 12:51 7,9 C 78 % 1002,4 hPa 0,0 l/m 11,2 km/h (2 Bft) S-SW 202 4,3 C 5,9 C
01.01.2013 12:56 7,9 C 78 % 1002,3 hPa 0,0 l/m 8,3 km/h (2 Bft) W-SW 247 4,3 C 6,5 C
01.01.2013 13:01 7,9 C 78 % 1002,5 hPa 0,0 l/m 11,9 km/h (2 Bft) SW 225 4,3 C 5,8 C
01.01.2013 13:06 7,9 C 78 % 1002,2 hPa 0,0 l/m 18,4 km/h (3 Bft) SW 225 4,3 C 4,9 C
01.01.2013 13:11 7,9 C 78 % 1002,4 hPa 0,0 l/m 18,4 km/h (3 Bft) S-SW 202 4,3 C 4,9 C
01.01.2013 13:16 7,9 C 78 % 1002,4 hPa 0,0 l/m 8,3 km/h (2 Bft) W-SW 247 4,3 C 6,5 C
01.01.2013 13:21 7,8 C 78 % 1002,5 hPa 0,0 l/m 12,2 km/h (2 Bft) W-SW 247 4,2 C 5,6 C
01.01.2013 13:26 7,8 C 79 % 1002,3 hPa 0,0 l/m 22,0 km/h (4 Bft) SW 225 4,4 C 4,4 C
01.01.2013 13:31 7,8 C 79 % 1002,3 hPa 0,0 l/m 7,6 km/h (2 Bft) W-SW 247 4,4 C 6,5 C
01.01.2013 13:36 7,8 C 79 % 1002,3 hPa 0,0 l/m 15,1 km/h (3 Bft) W-SW 247 4,4 C 5,2 C
01.01.2013 13:41 7,8 C 79 % 1002,3 hPa 0,0 l/m 21,6 km/h (4 Bft) S-SW 202 4,4 C 4,4 C
01.01.2013 13:46 7,8 C 79 % 1002,2 hPa 0,0 l/m 10,1 km/h (2 Bft) S 180 4,4 C 6,0 C
01.01.2013 13:51 7,8 C 79 % 1002,5 hPa 0,0 l/m 18,4 km/h (3 Bft) SW 225 4,4 C 4,8 C
01.01.2013 13:56 7,8 C 79 % 1002,5 hPa 0,0 l/m 9,4 km/h (2 Bft) W-SW 247 4,4 C 6,1 C
01.01.2013 14:01 7,8 C 80 % 1002,5 hPa 0,0 l/m 6,1 km/h (2 Bft) S 180 4,6 C 6,9 C
01.01.2013 14:06 7,7 C 80 % 1002,6 hPa 0,0 l/m 11,5 km/h (2 Bft) W 270 4,5 C 5,6 C
01.01.2013 14:11 7,6 C 80 % 1002,6 hPa 0,0 l/m 9,7 km/h (2 Bft) W-SW 247 4,4 C 5,8 C
01.01.2013 14:16 7,5 C 81 % 1002,4 hPa 0,0 l/m 12,6 km/h (3 Bft) W-SW 247 4,5 C 5,2 C
01.01.2013 14:21 7,5 C 81 % 1002,6 hPa 0,0 l/m 17,3 km/h (3 Bft) W-SW 247 4,5 C 4,5 C
01.01.2013 14:26 7,4 C 82 % 1002,5 hPa 0,0 l/m 19,4 km/h (3 Bft) W-SW 247 4,5 C 4,2 C
01.01.2013 14:31 7,4 C 82 % 1002,5 hPa 0,0 l/m 12,6 km/h (3 Bft) W-SW 247 4,5 C 5,1 C
01.01.2013 14:36 7,3 C 82 % 1002,5 hPa 0,0 l/m 18,0 km/h (3 Bft) SW 225 4,4 C 4,2 C
01.01.2013 14:41 7,3 C 83 % 1002,6 hPa 0,0 l/m 10,8 km/h (2 Bft) SW 225 4,6 C 5,3 C
01.01.2013 14:46 7,3 C 83 % 1002,8 hPa 0,0 l/m 6,1 km/h (2 Bft) W-SW 247 4,6 C 6,3 C
01.01.2013 14:51 7,2 C 83 % 1002,6 hPa 0,0 l/m 19,1 km/h (3 Bft) W 270 4,5 C 3,9 C
01.01.2013 14:56 7,2 C 84 % 1002,7 hPa 0,0 l/m 13,3 km/h (3 Bft) W 270 4,7 C 4,7 C
01.01.2013 15:01 7,2 C 84 % 1002,7 hPa 0,0 l/m 9,7 km/h (2 Bft) S-SW 202 4,7 C 5,3 C
01.01.2013 15:06 7,1 C 85 % 1002,6 hPa 0,0 l/m 7,6 km/h (2 Bft) SW 225 4,8 C 5,7 C
01.01.2013 15:11 7,1 C 85 % 1002,6 hPa 0,0 l/m 9,4 km/h (2 Bft) SW 225 4,8 C 5,3 C
01.01.2013 15:16 7,0 C 85 % 1002,7 hPa 0,0 l/m 12,2 km/h (2 Bft) SW 225 4,7 C 4,6 C
01.01.2013 15:21 7,0 C 85 % 1002,7 hPa 0,0 l/m 7,2 km/h (2 Bft) SW 225 4,7 C 5,7 C
01.01.2013 15:26 6,9 C 86 % 1002,8 hPa 0,0 l/m 7,6 km/h (2 Bft) W-SW 247 4,7 C 5,5 C
01.01.2013 15:31 6,9 C 86 % 1002,9 hPa 0,0 l/m 14,8 km/h (3 Bft) W-SW 247 4,7 C 4,1 C
01.01.2013 15:36 6,9 C 86 % 1003,0 hPa 0,0 l/m 13,7 km/h (3 Bft) W-SW 247 4,7 C 4,3 C
01.01.2013 15:41 6,9 C 86 % 1002,9 hPa 0,5 l/m 13,3 km/h (3 Bft) SW 225 4,7 C 4,3 C
01.01.2013 15:46 6,9 C 87 % 1003,0 hPa 0,0 l/m 13,7 km/h (3 Bft) W-SW 247 4,9 C 4,3 C
01.01.2013 15:51 6,8 C 87 % 1003,0 hPa 0,0 l/m 7,2 km/h (2 Bft) W 270 4,8 C 5,5 C
01.01.2013 15:56 6,8 C 87 % 1003,0 hPa 0,0 l/m 9,4 km/h (2 Bft) W 270 4,8 C 4,9 C
01.01.2013 16:01 6,8 C 87 % 1003,1 hPa 0,0 l/m 18,0 km/h (3 Bft) SW 225 4,8 C 3,6 C
01.01.2013 16:06 6,7 C 87 % 1003,1 hPa 0,0 l/m 6,5 km/h (2 Bft) W-SW 247 4,7 C 5,5 C
01.01.2013 16:11 6,7 C 87 % 1003,1 hPa 0,0 l/m 5,8 km/h (2 Bft) S-SW 202 4,7 C 5,7 C
01.01.2013 16:16 6,7 C 87 % 1003,3 hPa 0,0 l/m 9,4 km/h (2 Bft) W-SW 247 4,7 C 4,8 C
01.01.2013 16:21 6,6 C 88 % 1003,4 hPa 0,0 l/m 10,1 km/h (2 Bft) S-SW 202 4,8 C 4,5 C
01.01.2013 16:26 6,6 C 88 % 1003,4 hPa 0,5 l/m 9,7 km/h (2 Bft) SW 225 4,8 C 4,6 C
01.01.2013 16:31 6,6 C 88 % 1003,3 hPa 0,0 l/m 16,9 km/h (3 Bft) W-SW 247 4,8 C 3,5 C
01.01.2013 16:36 6,6 C 88 % 1003,3 hPa 0,0 l/m 5,0 km/h (1 Bft) S-SW 202 4,8 C 5,9 C
01.01.2013 16:41 6,6 C 88 % 1003,2 hPa 0,0 l/m 7,6 km/h (2 Bft) S 180 4,8 C 5,1 C
01.01.2013 16:46 6,6 C 89 % 1003,5 hPa 0,0 l/m 15,5 km/h (3 Bft) S-SW 202 4,9 C 3,7 C
01.01.2013 16:51 6,6 C 89 % 1003,5 hPa 0,0 l/m 7,6 km/h (2 Bft) SW 225 4,9 C 5,1 C
01.01.2013 16:56 6,6 C 89 % 1003,5 hPa 0,0 l/m 5,8 km/h (2 Bft) SW 225 4,9 C 5,6 C
01.01.2013 17:01 6,5 C 89 % 1003,4 hPa 0,0 l/m 9,7 km/h (2 Bft) W-SW 247 4,8 C 4,5 C
01.01.2013 17:06 6,5 C 89 % 1003,6 hPa 0,0 l/m 11,2 km/h (2 Bft) S-SW 202 4,8 C 4,2 C
01.01.2013 17:11 6,5 C 89 % 1003,5 hPa 0,0 l/m 6,5 km/h (2 Bft) S-SW 202 4,8 C 5,3 C
01.01.2013 17:16 6,5 C 89 % 1003,6 hPa 0,0 l/m 11,9 km/h (2 Bft) W-SW 247 4,8 C 4,1 C
01.01.2013 17:21 6,5 C 89 % 1003,7 hPa 0,0 l/m 10,4 km/h (2 Bft) SW 225 4,8 C 4,4 C
01.01.2013 17:26 6,5 C 89 % 1003,7 hPa 0,0 l/m 6,8 km/h (2 Bft) W-SW 247 4,8 C 5,2 C
01.01.2013 17:31 6,5 C 89 % 1003,5 hPa 0,0 l/m 7,2 km/h (2 Bft) S-SW 202 4,8 C 5,1 C
01.01.2013 17:36 6,5 C 89 % 1003,6 hPa 0,0 l/m 5,8 km/h (2 Bft) S-SW 202 4,8 C 5,5 C
01.01.2013 17:41 6,4 C 89 % 1003,6 hPa 0,5 l/m 3,2 km/h (1 Bft) SW 225 4,7 C 6,4 C
01.01.2013 17:46 6,4 C 89 % 1003,7 hPa 0,0 l/m 8,6 km/h (2 Bft) W-SW 247 4,7 C 4,6 C
01.01.2013 17:51 6,4 C 89 % 1003,8 hPa 0,0 l/m 5,4 km/h (1 Bft) S 180 4,7 C 5,5 C
01.01.2013 17:56 6,4 C 89 % 1003,8 hPa 0,0 l/m 10,1 km/h (2 Bft) S-SW 202 4,7 C 4,3 C
01.01.2013 18:01 6,4 C 89 % 1003,8 hPa 0,0 l/m 13,7 km/h (3 Bft) W-SW 247 4,7 C 3,7 C
01.01.2013 18:06 6,4 C 89 % 1003,8 hPa 0,0 l/m 13,3 km/h (3 Bft) W 270 4,7 C 3,7 C
01.01.2013 18:11 6,4 C 89 % 1004,0 hPa 0,0 l/m 14,8 km/h (3 Bft) SW 225 4,7 C 3,5 C
01.01.2013 18:16 6,4 C 89 % 1004,0 hPa 0,0 l/m 10,8 km/h (2 Bft) S-SW 202 4,7 C 4,2 C
01.01.2013 18:21 6,4 C 90 % 1004,0 hPa 0,0 l/m 10,1 km/h (2 Bft) W 270 4,9 C 4,3 C
01.01.2013 18:26 6,4 C 90 % 1004,1 hPa 0,0 l/m 9,4 km/h (2 Bft) SW 225 4,9 C 4,5 C
01.01.2013 18:31 6,4 C 90 % 1004,2 hPa 0,0 l/m 11,9 km/h (2 Bft) S-SW 202 4,9 C 4,0 C
01.01.2013 18:36 6,4 C 90 % 1004,2 hPa 0,0 l/m 6,1 km/h (2 Bft) W-SW 247 4,9 C 5,3 C
01.01.2013 18:41 6,4 C 90 % 1004,4 hPa 0,0 l/m 8,3 km/h (2 Bft) W-SW 247 4,9 C 4,7 C
01.01.2013 18:46 6,4 C 90 % 1004,3 hPa 0,0 l/m 9,7 km/h (2 Bft) W-SW 247 4,9 C 4,4 C
01.01.2013 18:51 6,4 C 90 % 1004,5 hPa 0,0 l/m 7,9 km/h (2 Bft) W 270 4,9 C 4,8 C
01.01.2013 18:56 6,4 C 90 % 1004,5 hPa 0,0 l/m 9,4 km/h (2 Bft) W-SW 247 4,9 C 4,5 C
01.01.2013 19:01 6,4 C 90 % 1004,5 hPa 0,0 l/m 14,4 km/h (3 Bft) W 270 4,9 C 3,6 C
01.01.2013 19:06 6,4 C 90 % 1004,7 hPa 0,5 l/m 5,8 km/h (2 Bft) W-SW 247 4,9 C 5,4 C
01.01.2013 19:11 6,4 C 90 % 1004,8 hPa 0,0 l/m 9,0 km/h (2 Bft) W-SW 247 4,9 C 4,5 C
01.01.2013 19:16 6,4 C 90 % 1004,9 hPa 0,0 l/m 4,0 km/h (1 Bft) W-SW 247 4,9 C 6,4 C
01.01.2013 19:21 6,4 C 90 % 1005,0 hPa 0,0 l/m 9,0 km/h (2 Bft) W-SW 247 4,9 C 4,5 C
01.01.2013 19:26 6,4 C 90 % 1005,1 hPa 0,0 l/m 23,4 km/h (4 Bft) W 270 4,9 C 2,5 C
01.01.2013 19:31 6,4 C 90 % 1005,2 hPa 0,0 l/m 6,1 km/h (2 Bft) W 270 4,9 C 5,3 C
01.01.2013 19:36 6,4 C 90 % 1005,3 hPa 0,0 l/m 7,6 km/h (2 Bft) W 270 4,9 C 4,9 C
01.01.2013 19:41 6,4 C 90 % 1005,4 hPa 0,0 l/m 10,1 km/h (2 Bft) W-SW 247 4,9 C 4,3 C
01.01.2013 19:46 6,4 C 91 % 1005,6 hPa 0,0 l/m 4,0 km/h (1 Bft) W 270 5,0 C 6,4 C
01.01.2013 19:51 6,4 C 91 % 1005,6 hPa 0,0 l/m 5,8 km/h (2 Bft) W 270 5,0 C 5,4 C
01.01.2013 19:56 6,4 C 91 % 1005,8 hPa 0,0 l/m 5,0 km/h (1 Bft) W 270 5,0 C 5,7 C
01.01.2013 20:01 6,4 C 91 % 1006,0 hPa 0,0 l/m 4,7 km/h (1 Bft) W-SW 247 5,0 C 5,8 C
01.01.2013 20:06 6,4 C 91 % 1006,0 hPa 0,0 l/m 7,6 km/h (2 Bft) W-SW 247 5,0 C 4,9 C
01.01.2013 20:11 6,4 C 91 % 1006,1 hPa 0,0 l/m 7,2 km/h (2 Bft) W 270 5,0 C 5,0 C
01.01.2013 20:16 6,4 C 91 % 1006,2 hPa 0,0 l/m 4,0 km/h (1 Bft) W-NW 292 5,0 C 6,4 C
01.01.2013 20:21 6,4 C 91 % 1006,2 hPa 0,0 l/m 4,0 km/h (1 Bft) W 270 5,0 C 6,4 C
01.01.2013 20:26 6,3 C 91 % 1006,2 hPa 0,0 l/m 5,4 km/h (1 Bft) W 270 4,9 C 5,4 C
01.01.2013 20:31 6,3 C 91 % 1006,4 hPa 0,0 l/m 10,1 km/h (2 Bft) W 270 4,9 C 4,2 C
01.01.2013 20:36 6,3 C 91 % 1006,6 hPa 0,0 l/m 18,0 km/h (3 Bft) W 270 4,9 C 2,9 C
01.01.2013 20:41 6,2 C 91 % 1006,8 hPa 0,0 l/m 10,1 km/h (2 Bft) W-NW 292 4,8 C 4,1 C
01.01.2013 20:46 6,2 C 91 % 1007,0 hPa 0,0 l/m 9,0 km/h (2 Bft) W-NW 292 4,8 C 4,3 C
01.01.2013 20:51 6,1 C 90 % 1007,1 hPa 0,0 l/m 15,5 km/h (3 Bft) W-NW 292 4,6 C 3,0 C
01.01.2013 20:56 5,9 C 88 % 1007,1 hPa 0,5 l/m 21,6 km/h (4 Bft) W-NW 292 4,1 C 2,0 C
01.01.2013 21:01 5,8 C 87 % 1007,2 hPa 0,0 l/m 14,4 km/h (3 Bft) W-NW 292 3,8 C 2,8 C
01.01.2013 21:06 5,6 C 86 % 1007,3 hPa 0,0 l/m 9,7 km/h (2 Bft) NW 315 3,4 C 3,4 C
01.01.2013 21:11 5,6 C 86 % 1007,3 hPa 0,0 l/m 6,1 km/h (2 Bft) W 270 3,4 C 4,4 C
01.01.2013 21:16 5,5 C 86 % 1007,4 hPa 0,0 l/m 9,7 km/h (2 Bft) NW 315 3,3 C 3,3 C
01.01.2013 21:21 5,4 C 86 % 1007,3 hPa 0,0 l/m 7,2 km/h (2 Bft) W-NW 292 3,3 C 3,8 C
01.01.2013 21:26 5,4 C 86 % 1007,6 hPa 0,0 l/m 6,1 km/h (2 Bft) W 270 3,3 C 4,2 C
01.01.2013 21:31 5,3 C 86 % 1007,8 hPa 0,0 l/m 5,8 km/h (2 Bft) W-SW 247 3,2 C 4,1 C
01.01.2013 21:36 5,3 C 86 % 1007,7 hPa 0,0 l/m 12,2 km/h (2 Bft) W 270 3,2 C 2,6 C
01.01.2013 21:41 5,3 C 86 % 1007,7 hPa 0,0 l/m 8,6 km/h (2 Bft) W-NW 292 3,2 C 3,3 C
01.01.2013 21:46 5,3 C 86 % 1007,7 hPa 0,0 l/m 4,0 km/h (1 Bft) W 270 3,2 C 5,3 C
01.01.2013 21:51 5,3 C 86 % 1008,1 hPa 0,0 l/m 8,6 km/h (2 Bft) W-SW 247 3,2 C 3,3 C
01.01.2013 21:56 5,2 C 86 % 1008,2 hPa 0,0 l/m 5,0 km/h (1 Bft) W-NW 292 3,1 C 4,3 C
01.01.2013 22:01 5,2 C 86 % 1008,1 hPa 0,0 l/m 7,6 km/h (2 Bft) W-SW 247 3,1 C 3,5 C
01.01.2013 22:06 5,2 C 86 % 1008,1 hPa 0,0 l/m 8,3 km/h (2 Bft) W-NW 292 3,1 C 3,3 C
01.01.2013 22:11 5,2 C 86 % 1008,2 hPa 0,0 l/m 3,2 km/h (1 Bft) W 270 3,1 C 5,2 C
01.01.2013 22:16 5,2 C 86 % 1008,1 hPa 0,0 l/m 9,4 km/h (2 Bft) W-SW 247 3,1 C 3,0 C
01.01.2013 22:21 5,1 C 87 % 1008,2 hPa 0,0 l/m 13,7 km/h (3 Bft) W 270 3,1 C 2,1 C
01.01.2013 22:26 5,1 C 87 % 1008,2 hPa 0,0 l/m 12,2 km/h (2 Bft) W-SW 247 3,1 C 2,3 C
01.01.2013 22:31 5,1 C 87 % 1008,3 hPa 0,0 l/m 7,6 km/h (2 Bft) W 270 3,1 C 3,4 C
01.01.2013 22:36 5,1 C 87 % 1008,4 hPa 0,0 l/m 14,8 km/h (3 Bft) W 270 3,1 C 1,9 C
01.01.2013 22:41 5,1 C 88 % 1008,5 hPa 0,0 l/m 6,1 km/h (2 Bft) W 270 3,3 C 3,8 C
01.01.2013 22:46 5,0 C 88 % 1008,5 hPa 0,0 l/m 10,1 km/h (2 Bft) W 270 3,2 C 2,6 C
01.01.2013 22:51 4,9 C 88 % 1008,6 hPa 0,0 l/m 5,0 km/h (1 Bft) W-SW 247 3,1 C 4,0 C
01.01.2013 22:56 4,9 C 88 % 1008,8 hPa 0,0 l/m 6,5 km/h (2 Bft) W 270 3,1 C 3,4 C
01.01.2013 23:01 4,9 C 88 % 1008,8 hPa 0,0 l/m 5,8 km/h (2 Bft) W 270 3,1 C 3,7 C
01.01.2013 23:06 4,8 C 88 % 1008,9 hPa 0,0 l/m 8,6 km/h (2 Bft) W 270 3,0 C 2,7 C
01.01.2013 23:11 4,7 C 88 % 1009,1 hPa 0,0 l/m 16,2 km/h (3 Bft) W-SW 247 2,9 C 1,2 C
01.01.2013 23:16 4,6 C 88 % 1009,2 hPa 0,0 l/m 11,9 km/h (2 Bft) W 270 2,8 C 1,8 C
01.01.2013 23:21 4,5 C 88 % 1009,1 hPa 0,0 l/m 19,4 km/h (3 Bft) W 270 2,7 C 0,5 C
01.01.2013 23:26 4,4 C 88 % 1009,2 hPa 0,0 l/m 7,2 km/h (2 Bft) W-SW 247 2,6 C 2,7 C
01.01.2013 23:31 4,3 C 88 % 1009,2 hPa 0,0 l/m 8,6 km/h (2 Bft) W-SW 247 2,5 C 2,2 C
01.01.2013 23:36 4,3 C 88 % 1009,3 hPa 0,0 l/m 18,4 km/h (3 Bft) W 270 2,5 C 0,4 C
01.01.2013 23:41 4,2 C 89 % 1009,4 hPa 0,0 l/m 7,9 km/h (2 Bft) W-SW 247 2,6 C 2,2 C
01.01.2013 23:46 4,1 C 89 % 1009,3 hPa 0,0 l/m 13,0 km/h (3 Bft) W 270 2,5 C 1,0 C
01.01.2013 23:51 4,1 C 89 % 1009,4 hPa 0,0 l/m 16,6 km/h (3 Bft) W-SW 247 2,5 C 0,4 C
01.01.2013 23:56 4,1 C 89 % 1009,5 hPa 0,0 l/m 18,0 km/h (3 Bft) W 270 2,5 C 0,2 C
_ Min-Zeit 23:46 03:56 06:56 - 17:41 - - 23:46 23:56
Minimum _ 4,1 C 76 % 1001,9 hPa - 3,2 km/h (1 Bft) - - 2,5 C 0,2 C
_ Max-Zeit 12:06 19:46 23:56 15:41 12:41 - - 19:46 07:31
Maximum _ 7,9 C 91 % 1009,5 hPa 0,5 l/m 27,4 km/h
S-SW (4 Bft)
- - 5,0 C 7,2 C
Durchschnitt _ 6,8 C 83 % 1003,9 hPa #2,6 l/m 12,2 km/h (3 Bft) W-SW - 4,0 C 4,5 C
(c) by David Heller